Tracking 26308 objects as of 1-Dec-2022
HD Live streaming from Space Station
objects crossing your sky now

GALAXY 32

Track GALAXY 32 now!
GALAXY 32 is classified as:


NORAD ID: 54244
Int'l Code: 2022-153B
Perigee: 35,785.7 km
Apogee: 35,801.9 km
Inclination: 0.0 °
Period: 1,436.1 minutes
Semi major axis: 42164 km
RCS: Unknown
Launch date: November 12, 2022
Source: United States (US)
Launch site: AIR FORCE EASTERN TEST RANGE (AFETR)
aabbcc
Your satellite tracking list
Your tracking list is empty




NASA's NSSDC Master Catalog

Two Line Element Set (TLE):
1 54244U 22153B   22334.59043838  .00000132  00000-0  00000-0 0  9992
2 54244   0.0390   2.7285 0001924 268.5467 221.6947  1.00271534   173
Source of the keplerian elements: AFSPC